Date,TemperatureHighF,TemperatureAvgF,TemperatureLowF,DewpointHighF,DewpointAvgF,DewpointLowF,HumidityHigh,HumidityAvg,HumidityLow,PressureMaxIn,PressureMinIn,WindSpeedMaxMPH,WindSpeedAvgMPH,GustSpeedMaxMPH,PrecipitationSumIn
2013-3-1,29,26,24,25,22,19,89,84,75,30.16,30.00,10,4,16,0.01
2013-3-2,30,21,13,20,14,10,88,77,62,30.16,30.09,6,1,9,0.00
2013-3-3,32,19,6,18,11,3,92,72,44,30.09,29.98,5,1,6,0.00
2013-3-4,31,26,20,26,20,12,86,79,69,30.02,29.86,14,5,21,0.00
2013-3-5,35,31,26,33,30,25,96,95,93,30.00,29.74,10,2,16,0.24
2013-3-6,33,28,24,27,25,22,95,87,77,30.24,30.00,9,2,14,0.12
2013-3-7,36,29,22,28,24,18,92,82,66,30.33,30.24,7,1,10,0.14
2013-3-8,37,29,19,31,25,17,93,85,73,30.36,30.18,14,5,18,0.01
2013-3-9,40,37,34,38,34,29,94,89,83,30.18,29.70,18,8,21,0.20
2013-3-10,42,41,39,42,40,37,100,98,87,29.71,29.48,14,4,19,0.76
2013-3-11,40,35,32,40,34,28,100,97,88,29.75,29.49,11,3,17,0.07
2013-3-12,36,30,26,31,26,20,94,83,71,29.99,29.74,16,6,21,0.01
2013-3-13,35,28,22,21,19,16,86,70,45,30.25,29.99,14,3,15,0.00
2013-3-14,37,30,23,33,26,18,95,87,77,30.26,29.98,13,4,19,0.00
2013-3-15,33,31,30,31,30,28,96,95,93,29.99,29.85,5,1,6,0.00
2013-3-16,37,32,31,31,27,25,91,81,76,30.04,29.88,8,2,11,0.00
2013-3-17,34,31,25,29,24,18,85,78,71,30.12,29.86,14,5,18,0.00
2013-3-18,35,30,21,34,26,15,96,87,75,29.86,29.56,20,6,24,0.06
2013-3-19,31,24,16,20,16,10,79,72,60,30.05,29.76,17,8,24,0.01
2013-3-20,26,20,12,19,10,5,76,68,58,30.07,29.97,15,6,22,0.00
2013-3-21,32,22,12,19,13,8,83,68,47,30.01,29.93,7,1,11,0.00
2013-3-22,39,28,17,25,20,15,92,72,51,29.98,29.93,7,1,8,0.00
2013-3-23,42,34,25,30,24,20,90,69,48,30.04,29.92,6,2,11,0.00
2013-3-24,35,32,30,31,29,26,96,88,80,29.96,29.63,13,4,19,0.01
2013-3-25,37,32,28,31,27,23,87,79,72,30.04,29.71,9,2,16,0.02
2013-3-26,40,35,31,29,27,24,81,71,56,30.19,30.03,8,2,12,0.01
2013-3-27,46,38,32,31,27,23,84,66,43,30.26,30.19,5,0,10,0.00
2013-3-28,51,39,27,34,28,23,92,68,42,30.29,30.19,4,1,12,0.00
2013-3-29,57,44,32,35,31,27,82,62,39,30.24,30.13,7,1,9,0.00
2013-3-30,57,46,34,44,35,-100,89,70,53,30.14,29.78,17,6,23,0.00
2013-3-31,56,45,35,45,38,27,96,77,51,29.86,29.69,17,5,24,0.00